Location: Unspecified
(0.0000°N, 0.0000°E)
Time: 17:56:34
(UTC+00:00)

IRIDIUM 114 - Pass Details

Date: 23 November 2025
Orbit: 776 x 779 km, 86.4° (Epoch: 05 December)

Event Time Altitude Azimuth Distance (km) Brightness Sun altitude
Exits shadow 20:23:01 - 315° (NW) 2,653 7.3 -36.2°
Reaches altitude 10° 20:24:24 10° 304° (NW) 2,318 7.1 -36.5°
Maximum altitude 20:27:15 15° 270° (W) 1,996 7.0 -37.2°
Drops below altitude 10° 20:30:07 10° 236° (WSW) 2,325 7.5 -37.8°
Sets 20:33:31 0° 213° (SSW) 3,256 8.3 -38.6°
